• Join FlightAware (Why Join?)
  • Login
  • US Flag 
12:25PM EDT


 

Airport Tracker/Info


-or-


 

Live Flight TrackerFlight Track Log ✈ N187CS ✈ 26-Apr-2013 ✈ KSAV - KDNL

Flight Track Log - Related Links

Times and Time Zones

All times are in EDT time to prevent confusion due to time zone crossing. See the N187CS flight status page for this flight to view local times or setup timezone preferences in your user account.

Time Position Orientation Groundspeed Altitude Reporting Facility
EDT Latitude Longitude Course Direction KTS MPH feet Rate Location/Type
11:15AM 32.3142 -81.3090 341° North  Level FlightAware Approximate
11:16AM 32.3477 -81.3262 331° Northwest  Level FlightAware Approximate
11:17AM 32.3797 -81.3475 331° Northwest  Level FlightAware Approximate
11:18AM 32.4117 -81.3688 331° Northwest  Level FlightAware Approximate
11:19AM 32.4436 -81.3901 331° Northwest  Level FlightAware Approximate
11:20AM 32.4756 -81.4114 331° Northwest  Level FlightAware Approximate
11:20AM 32.4631 -81.4497 333° Northwest 148 170 6,000  Level Jacksonville Center
11:21AM 32.5075 -81.4327 331° Northwest  Level FlightAware Approximate
11:21AM 32.4967 -81.4689 334° Northwest 153 176 5,900  Level Jacksonville Center
11:22AM 32.5395 -81.4540 331° Northwest  Level FlightAware Approximate
11:22AM 32.5389 -81.4928 335° Northwest 153 176 5,900  Level Jacksonville Center
11:23AM 32.5715 -81.4754 331° Northwest  Level FlightAware Approximate
11:23AM 32.5767 -81.5144 334° Northwest 153 176 5,900  Level Jacksonville Center
11:24AM 32.6038 -81.4959 333° Northwest  Level FlightAware Approximate
11:24AM 32.6144 -81.5386 332° Northwest 153 176 5,900  Level Jacksonville Center
11:25AM 32.6363 -81.5160 333° Northwest  Level FlightAware Approximate
11:25AM 32.6458 -81.5578 333° Northwest 153 176 5,900  Level Jacksonville Center
11:26AM 32.6881 -81.5844 332° Northwest 153 176 5,900  Level Jacksonville Center
11:27AM 32.7258 -81.6036 337° Northwest 153 176 5,900  Level Jacksonville Center
11:28AM 32.7614 -81.6278 330° Northwest 153 176 5,900  Level Jacksonville Center
11:30AM 32.8213 -81.6529 341° North  Level FlightAware Approximate
11:37AM 33.0575 -81.7763 333° Northwest  Level FlightAware Approximate
11:38AM 33.0901 -81.7964 333° Northwest  Level FlightAware Approximate
11:39AM 33.1227 -81.8165 333° Northwest  Level FlightAware Approximate
11:40AM 33.1550 -81.8371 328° Northwest  Level FlightAware Approximate
11:41AM 33.1861 -81.8604 328° Northwest  Level FlightAware Approximate
11:42AM 33.2172 -81.8836 332° Northwest  Level FlightAware Approximate
11:43AM 33.2495 -81.9042 332° Northwest  Level FlightAware Approximate
11:44AM 33.2819 -81.9248 332° Northwest  Level FlightAware Approximate
11:45AM 33.3143 -81.9454 332° Northwest  Level FlightAware Approximate